Minneapolis, MN

3:48 PM CDT on September 26, 2017 (GMT -0500)
Minneapolis-Saint Paul International

Weather History for KMSP - March, 2013

Change the Weather History Date:

Monday, March 25, 2013

  Actual Average Record
Temperature  
Mean Temperature 31 °F 37 °F  
Max Temperature 38 °F 46 °F 78 °F (1939)
Min Temperature 24 °F 28 °F -5 °F (1940)
Degree Days  
Heating Degree Days 34 28  
Month to date heating degree days 997 840  
Since 1 July heating degree days 6531 6630  
Cooling Degree Days 0 0  
Month to date cooling degree days 0 0  
Year to date cooling degree days 0 0  
Moisture  
Dew Point 19 °F    
Average Humidity 61    
Maximum Humidity 74    
Minimum Humidity 48    
Precipitation  
Precipitation 0.00 in 0.07 in 0.51 in (1995)
Month to date precipitation 1.85 1.47  
Year to date precipitation 4.04 3.14  
Snow  
Snow 0.00 in 0.30 in 3.60 in (1996)
Month to date snowfall 13.8 9.1  
Since 1 July snowfall 49.3 50.8  
Snow Depth 6.00 in    
Sea Level Pressure  
Sea Level Pressure 30.15 in    
Wind  
Wind Speed 11 mph (NNW)    
Max Wind Speed 20 mph    
Max Gust Speed 25 mph    
Visibility 10 miles    
Events      
T = Trace of Precipitation, MM = Missing Value Source: NWS Daily Summary

Daily Weather History Graph

Daily Weather History Graph

Search for Another Location

Airport or City:

Trip Planner

Search our weather history database for the weather conditions in past years. The results will help you decide how hot, cold, wet, or windy it might be!

Date:

Astronomy

Mar. 25, 2013 Rise Set
Actual Time 7:06 AM CDT 7:32 PM CDT
Civil Twilight 6:36 AM CDT 8:01 PM CDT
Nautical Twilight 6:02 AM CDT 8:36 PM CDT
Astronomical Twilight 5:26 AM CDT 9:12 PM CDT
Moon 6:02 PM CDT (3/25) 5:53 AM CDT (3/25)
Length of Visible Light 13h 24m
Length of Day
12h 25m
Waxing Gibbous, 96% of the Moon is Illuminated
Mar 25
Waxing Gibbous
Mar 27
Full
Apr 2
Last Quarter
Apr 10
New
Apr 18
First Quarter

Hourly Weather History & Observations

Time (CDT) Temp. Windchill Dew Point Humidity Pressure Visibility Wind Dir Wind Speed Gust Speed Precip Events Conditions
12:53 AM 30.9 °F 21.2 °F 19.9 °F 64% 30.07 in 10.0 mi North 12.7 mph - N/A   Mostly Cloudy
1:53 AM 28.9 °F 19.2 °F 19.9 °F 69% 30.08 in 10.0 mi North 11.5 mph - N/A   Mostly Cloudy
2:53 AM 28.0 °F 18.6 °F 19.0 °F 69% 30.08 in 10.0 mi North 10.4 mph - N/A   Scattered Clouds
3:53 AM 27.0 °F 15.6 °F 18.0 °F 69% 30.07 in 10.0 mi North 13.8 mph - N/A   Scattered Clouds
4:53 AM 26.1 °F 15.0 °F 18.0 °F 71% 30.08 in 10.0 mi North 12.7 mph - N/A   Scattered Clouds
5:53 AM 25.0 °F 14.8 °F 17.1 °F 72% 30.09 in 10.0 mi NNW 10.4 mph - N/A   Partly Cloudy
6:53 AM 24.1 °F 13.7 °F 16.0 °F 71% 30.11 in 10.0 mi NNW 10.4 mph - N/A   Partly Cloudy
7:53 AM 25.0 °F 15.5 °F 16.0 °F 69% 30.13 in 10.0 mi NNW 9.2 mph - N/A   Scattered Clouds
8:53 AM 26.1 °F 15.0 °F 16.0 °F 66% 30.15 in 10.0 mi NNW 12.7 mph - N/A   Scattered Clouds
9:53 AM 28.9 °F 19.2 °F 17.1 °F 61% 30.16 in 10.0 mi NNW 11.5 mph - N/A   Partly Cloudy
10:53 AM 30.9 °F 22.8 °F 18.0 °F 59% 30.17 in 10.0 mi NNW 9.2 mph - N/A   Partly Cloudy
11:53 AM 33.1 °F 23.9 °F 19.0 °F 56% 30.17 in 10.0 mi NNW 12.7 mph - N/A   Scattered Clouds
12:53 PM 35.1 °F 26.4 °F 19.9 °F 54% 30.16 in 10.0 mi NNW 12.7 mph - N/A   Scattered Clouds
1:53 PM 36.0 °F 28.5 °F 19.0 °F 50% 30.15 in 10.0 mi North 10.4 mph 18.4 mph N/A   Scattered Clouds
2:53 PM 37.9 °F 28.9 °F 19.0 °F 47% 30.15 in 10.0 mi NNW 16.1 mph 20.7 mph N/A   Scattered Clouds
3:53 PM 37.9 °F 31.5 °F 19.9 °F 48% 30.15 in 10.0 mi North 9.2 mph 19.6 mph N/A   Scattered Clouds
4:53 PM 37.9 °F 30.0 °F 19.9 °F 48% 30.16 in 10.0 mi NNW 12.7 mph - N/A   Scattered Clouds
5:53 PM 37.9 °F 30.5 °F 19.9 °F 48% 30.18 in 10.0 mi NNW 11.5 mph 18.4 mph N/A   Scattered Clouds
6:53 PM 36.0 °F 28.0 °F 19.9 °F 52% 30.20 in 10.0 mi NW 11.5 mph 19.6 mph N/A   Scattered Clouds
7:53 PM 35.1 °F 28.6 °F 19.9 °F 54% 30.22 in 10.0 mi NW 8.1 mph - N/A   Scattered Clouds
8:53 PM 34.0 °F 28.0 °F 21.0 °F 59% 30.23 in 10.0 mi WNW 6.9 mph - N/A   Overcast
9:53 PM 32.0 °F 25.6 °F 19.9 °F 61% 30.24 in 10.0 mi Variable 6.9 mph - N/A   Scattered Clouds
10:53 PM 30.9 °F 25.2 °F 19.9 °F 64% 30.24 in 10.0 mi WNW 5.8 mph - N/A   Mostly Cloudy
11:53 PM 32.0 °F 24.8 °F 21.0 °F 64% 30.24 in 10.0 mi NW 8.1 mph - N/A   Overcast